OPS 4682 DEB, 14715

Orbit data source: Space-Track

OPS 4682 DEB, 14715 is space debris in LEO originally from a launch on Sat, 03 Apr 1965 UTC launched from the Air Force Western Test Range (AFWTR). Debris objects in space refer to the collection of defunct objects orbiting the Earth. Examples of debris include non-operational satellites, rocket bodies, and fragments generated from explosions, collisions, or faulty payload assembly.

Loading next visibility...
Identifier
14715, 1965-027N
Orbit
LEO
Country
Flag of USUS
Related business
Manufacturer
Unknown
Mission
Spacecraft
Bus & Motor
Unknown
Mass
Unknown
Launch date (UTC)
1965-04-03 (61 years ago)
Launch vehicle
Unknown
Launch site
Air Force Western Test Range (AFWTR)
Object type
Payload
Rocket body
Debris
Shape & HBR
Unknown shape, 0.1 m
Radar Cross Section
Small (<0.1 m²)

Expand to show TLE details & history
Last TLE update: 8 hours ago

TLE from 8 hours ago
0 OPS 4682 DEB
1 14715U 65027N   25295.40360154  .00000985  00000-0  34017-2 0  9993
2 14715  90.2409 343.9329 0039048  46.8289 338.8869 12.96546932978127
Epoch: 2025-10-22T09:41Z
TLE epoch observation values (Epoch: 2025-10-22T09:41:11.173Z)
Latitude
25.58156°
Longitude
167.4439°
Altitude
1,250.872 km
Speed
7.245 km/s
True Right ascension
22h 55m 16s
True Declination
25° 27' 24"
Sunlit
Object was in full shadow at epoch
Visualization orbit readout
Latitude
Unknown
Longitude
Unknown
Altitude
Unknown
Speed
Unknown
Apparent Right ascension
Unknown
Apparent Declination
Unknown
Sunlit
N/A
Visualization observer readout
Local Sidereal Time
12:42:43
Azimuth
Unknown
Elevation
Unknown
Doppler factor
Unknown
Orbital elements
Apogee altitude
1,302.653 km
Perigee altitude
1,242.903 km
Semi-major axis
7,650.915 km
Eccentricity
0.0039
Inclination
90.2409°
RAAN
343.9329°
Arg. of periapsis
46.8289°
True anomaly
338.72498°
Mean anomaly
338.8869°
Eccentric anomaly
338.80602°
Mean motion
3.2432 °/min
Orbital period
111 mins
BSTAR
0.0034017
Loading maneuver chart data...
Computing Atmospheric mass density...
Loading historical data...
Loading historical data...
Loading historical data...
Loading historical data...
Loading historical data...
Loading historical data...
Loading historical data...

Documentation

Showing up to 5 results
|